Cloud_Cover
49 17 1 97 100 100 100 100 100 100 96 25 100 100 99 68 45 100 100 80 19 2 5 4 4 96 5 100 86 5 5 5 5 8 5 25 18 6 5 5 51 46 63 89 56 14 100 100 5
12 78 12 1 100 100 100 100 100 100 91 98 86 100 100 100 46 61 100 100 98 100 10 0 6 85 37 100 100 91 18 4 5 5 42 97 6 5 5 15 24 10 15 58 53 14 100 100 8
5 59 23 5 47 100 100 100 100 91 100 58 47 86 100 100 98 63 96 100 100 83 64 5 5 23 38 75 100 100 18 5 0 5 55 5 5 12 5 60 11 6 2 5 5 5 90 90 10
5 9 74 5 4 64 100 100 85 74 100 100 50 14 99 100 100 100 61 62 100 20 42 28 9 90 56 22 86 7 5 5 9 5 5 5 5 5 5 5 5 5 0 0 5 5 6 26 0
4 4 38 6 25 98 31 100 94 88 75 100 100 66 33 99 100 100 85 49 100 7 86 100 8 5 5 95 20 22 100 97 21 13 52 100 23 8 5 1 4 0 0 0 46 48 4 0 1
0 0 0 65 100 100 70 94 100 44 5 11 78 100 98 90 85 96 98 82 100 80 12 98 87 24 5 48 14 5 64 61 5 66 100 100 100 100 72 5 0 0 0 0 0 11 5 3 5
0 0 0 19 100 100 59 7 5 4 59 8 1 22 15 72 80 86 100 99 100 91 100 100 98 100 77 5 5 3 5 36 100 100 100 75 76 100 93 68 7 6 0 0 0 2 0 98 12
0 0 0 0 92 100 85 62 5 0 5 5 24 2 18 14 44 93 90 100 100 65 92 99 100 100 100 100 39 6 5 7 5 5 40 5 5 100 100 100 98 91 2 0 0 1 100 81 51
0 0 0 0 4 100 100 17 95 85 3 4 5 34 44 15 64 99 89 82 100 100 100 100 100 100 100 100 100 100 99 74 29 7 21 85 6 44 100 16 95 6 5 10 5 5 100 72 100
0 0 0 0 2 32 100 80 100 100 5 2 38 0 7 1 5 74 100 85 100 100 100 100 100 100 100 67 52 91 70 44 39 27 42 100 72 51 71 51 36 5 5 5 7 76 97 99 100
0 0 0 0 0 4 0 27 100 76 47 93 12 0 0 0 5 7 91 100 97 100 100 100 100 100 100 89 100 91 15 12 9 12 5 15 27 5 29 47 71 6 5 86 51 100 99 85 100
0 0 0 0 0 0 0 1 100 45 85 100 52 2 0 0 3 5 11 89 100 100 100 100 100 100 100 100 100 98 94 53 56 10 11 22 5 50 85 65 15 5 16 100 5 96 92 50 5
0 0 0 0 0 0 0 0 3 28 100 13 2 4 4 0 0 1 27 49 100 100 100 100 100 100 100 100 86 84 100 100 100 96 9 28 39 35 31 97 88 98 84 48 94 97 100 8 59
43 0 0 0 0 0 0 0 0 1 45 2 5 81 88 2 0 0 24 72 57 97 100 100 100 100 100 100 78 71 53 99 100 97 84 14 39 71 100 100 93 69 57 40 48 79 71 14 5
81 2 0 0 0 0 0 0 0 0 0 0 100 98 67 64 5 4 14 3 5 58 100 100 100 100 100 100 100 100 100 100 100 100 100 100 100 100 100 100 5 5 7 22 19 5 5 5 5
66 86 0 0 0 0 0 0 0 0 0 0 52 100 14 74 98 10 26 54 9 95 97 86 100 100 100 100 100 100 100 100 100 100 100 100 100 100 100 100 77 21 8 9 5 5 12 56 12
27 61 20 0 0 0 0 0 0 0 0 0 1 89 100 30 38 100 100 76 100 100 92 96 33 86 100 100 100 100 100 100 100 100 100 100 100 100 100 100 100 100 88 62 6 5 10 8 14
42 56 93 5 0 0 0 0 0 0 0 0 0 2 66 100 93 52 85 100 100 100 100 95 100 72 44 59 62 100 100 100 100 100 100 100 100 100 100 100 100 100 100 59 6 5 5 8 62
100 97 100 100 6 0 0 0 0 0 0 0 0 0 0 27 100 95 95 88 100 100 100 100 100 100 100 100 79 6 21 100 100 100 100 100 100 100 100 100 100 100 100 79 84 7 100 90 30
100 98 100 100 86 5 1 0 0 0 0 0 0 0 0 0 99 100 100 100 100 100 91 81 100 100 100 100 100 50 31 7 35 92 100 100 100 100 90 99 100 100 100 94 72 62 78 100 100
99 95 100 100 87 5 5 0 0 0 0 0 0 0 0 0 16 100 100 100 100 100 100 100 87 90 100 76 57 83 69 94 55 32 9 5 2 16 2 3 5 79 100 100 100 85 100 73 63
100 19 100 100 100 34 10 1 0 0 0 0 0 0 0 0 0 31 100 100 100 100 100 100 100 100 98 36 7 21 93 72 59 98 94 100 41 8 50 78 86 98 99 100 100 100 96 100 98
98 44 96 100 100 100 83 5 0 0 0 0 0 0 0 0 1 0 0 79 100 100 81 71 100 100 100 100 100 100 62 92 64 80 25 4 10 2 87 95 98 100 100 100 100 100 100 100 100
100 100 100 100 100 100 99 5 5 0 0 0 0 0 0 0 0 4 4 1 52 100 100 100 83 70 95 70 91 96 100 96 68 44 15 1 2 2 6 12 87 98 100 100 90 98 74 31 99
100 100 100 100 100 100 98 63 54 0 0 0 0 0 0 0 0 0 5 91 44 28 96 30 88 100 84 86 88 96 100 96 63 70 17 20 100 88 17 28 83 81 11 65 83 74 16 31 85
68 28 19 7 98 100 100 100 19 4 1 0 0 0 0 0 0 0 0 0 10 50 90 5 28 100 78 100 76 100 100 100 100 86 35 64 81 56 14 5 8 5 5 5 26 67 24 57 46
98 86 84 100 100 100 100 100 99 5 19 5 0 0 0 0 0 0 0 0 0 0 0 0 0 33 7 100 99 98 56 49 39 68 37 57 50 57 9 56 13 10 9 6 18 12 6 5 7
73 70 100 95 100 100 100 100 100 100 100 61 36 4 0 0 0 0 0 0 0 0 0 19 47 12 100 100 100 92 63 71 88 89 70 76 96 39 10 5 5 15 54 47 80 5 5 12 10
98 100 100 100 100 100 100 100 100 100 100 100 100 24 6 5 0 0 0 1 0 0 24 72 18 100 97 64 2 0 1 2 74 72 86 93 94 73 51 21 73 40 37 42 68 68 85 88 20
5 4 74 100 100 100 100 100 100 100 100 100 89 100 40 1 0 0 0 3 8 46 87 100 96 41 6 4 0 0 0 0 0 0 4 4 4 3 5 5 42 80 77 95 97 100 99 85 99